Location: Helensbirgh
(56.0153°N, 4.7348°W)
Time: 20:51:00
(UTC+00:00)

Envisat - Pass Details

Date: 20 October 2019
Orbit: 764 x 766 km, 98.1° (Epoch: 14 November)

Event Time Altitude Azimuth Distance (km) Brightness Sun altitude
Rises 07:10:07 0° 22° (NNE) 3,247 6.5 -7.6°
Reaches altitude 10° 07:12:58 10° 38° (NE) 2,315 5.9 -7.2°
Maximum altitude 07:16:51 22° 88° (E) 1,646 6.0 -6.7°
Drops below altitude 10° 07:20:44 10° 138° (SE) 2,301 6.3 -6.1°
Sets 07:23:33 0° 154° (SSE) 3,222 6.8 -5.8°
